Regional Weather Roundup
Issued by NWS

Home | Current Version | Previous Version | Text Only | Print | Product List | Glossary On
Versions: 1 2 3 4 5 6 7 8 9 10 11 12 13 14 15 16 17 18 19 20 21 22 23 24 25 26 27 28 29 30 31 32 33 34 35 36 37 38 39 40 41 42 43 44 45 46 47 48 49 50
000
ASUS43 KTOP 251508
RWRKS

WEATHER ROUNDUP FOR KANSAS
NATIONAL WEATHER SERVICE GOODLAND KS
900 AM CST SAT FEB 25 2017

NOTE:  "FAIR" INDICATES FEW OR NO CLOUDS BELOW 12,000 FEET WITH NO
SIGNIFICANT WEATHER AND/OR OBSTRUCTIONS TO VISIBILITY.

KSZ001>006-013>018-027>032-041>047-251600-
NORTHWEST KANSAS

CITY           SKY/WX    TMP DP  RH WIND       PRES   REMARKS
GOODLAND       SUNNY     23  20  88 SW17      30.03R WCI   9
HAYS           MOSUNNY   21  16  81 W8        30.17S
HILL CITY      MOSUNNY   18  13  80 W5        30.15R
RUSSELL        SUNNY     17  12  80 SW7       30.17R
$$

KSZ061>065-074>080-084>089-251600-
SOUTHWEST KANSAS

CITY           SKY/WX    TMP DP  RH WIND       PRES   REMARKS
DODGE CITY     CLOUDY    22  16  78 SW10      30.17R WCI  11
ELKHART          N/A     23   9  55 SW9         N/A
GARDEN CITY    PTSUNNY   23  15  71 SW7       30.15R
GREAT BEND     SUNNY     23  16  74 W6        30.20R
LIBERAL        SUNNY     27  16  63 CALM      30.17R
PRATT          MOSUNNY   20  14  76 W9        30.21R
$$

KSZ066>073-081>083-090>101-251600-
SOUTHEAST KANSAS

CITY           SKY/WX    TMP DP  RH WIND       PRES   REMARKS
CHANUTE        SUNNY     28  18  66 NW12      30.22R WCI  18
COFFEYVILLE    SUNNY     29  19  66 NW13      30.25R WCI  19
HUTCHINSON     SUNNY     22  15  75 NW8       30.21R
MEDICINE LODGE   N/A     23  15  71 NW6       30.24R
NEWTON         SUNNY     24  17  74 NW7       30.21R
PARSONS        SUNNY     29  19  66 NW12      30.23R WCI  19
WICHITA INTL   MOSUNNY   26  16  65 NW7       30.22S
WICHITA JABRA  SUNNY     25  17  72 NW9       30.21S
WICHITA MCCONL SUNNY     26  15  62 N5        30.22R
WINFIELD       SUNNY     28  19  69 N9        30.25R
$$

KSZ007>012-019>026-033>040-048>060-102>105-251600-
NORTHEAST KANSAS

CITY           SKY/WX    TMP DP  RH WIND       PRES   REMARKS
CONCORDIA      SUNNY     20  14  77 NW7       30.17S
EMPORIA        SUNNY     24  17  74 NW8       30.20R
LAWRENCE       SUNNY     25  20  81 W14       30.20R WCI  13
MANHATTAN      SUNNY     26  16  65 VRB5      30.20F
MARYSVILLE     CLOUDY    21  16  79 CALM      30.17S
OLATHE IND     SUNNY     25  17  72 NW12      30.18R WCI  14
OLATHE EXE     SUNNY     24  16  71 N9G20     30.17R
SALINA         SUNNY     26  16  65 W7        30.22R
TOPEKA BILLARD SUNNY     25  18  74 W12       30.21R WCI  14
TOPEKA FORBES  SUNNY     27  17  66 NW12      30.19R WCI  17
$$



USA.gov is the U.S. government's official web portal to all federal, state and local government web resources and services.